Regional Weather Roundup
Issued by NWS

Home | Current Version | Previous Version | Text Only | Print | Product List | Glossary Off
Versions: 1 2 3 4 5 6 7 8 9 10 11 12 13 14 15 16 17 18 19 20 21 22 23 24 25 26 27 28 29 30 31 32 33 34 35 36 37 38 39 40 41 42 43 44 45 46 47 48 49 50

000
ASUS45 KBOU 022307
RWRCO

WEATHER ROUNDUP FOR COLORADO
NATIONAL WEATHER SERVICE DENVER/BOULDER CO
500 PM MDT TUE JUN 02 2015

NOTE: "FAIR" INDICATES FEW OR NO CLOUDS BELOW 12000 FEET WITH NO
SIGNIFICANT WEATHER AND/OR OBSTRUCTIONS TO VISIBILITY.

COZ001>005-013-030-031-030000-
...NORTHWEST COLORADO...

CITY           SKY/WX    TMP DP  RH WIND       PRES   REMARKS
CRAIG          SUNNY     78  34  20 SW15      30.00F
HAYDEN         SUNNY     75  28  17 W20       30.02F
MEEKER         SUNNY     78  26  14 S8        30.01F
MOUNT WERNER   NOT AVBL
STEAMBOAT SPGS SUNNY     74  32  21 W13       30.04F
WALDEN         SUNNY     70  27  19 W15G23    30.13S
$$

COZ006>008-011-030000-
...WEST CENTRAL VALLEYS...

CITY           SKY/WX    TMP DP  RH WIND       PRES   REMARKS
GRAND JUNCTION SUNNY     87  18   8 NW17      29.89F
MONTROSE       SUNNY     85  16   7 SW18G26   30.00F
EAGLE          SUNNY     86  32  14 SW10      30.03F
RIFLE          SUNNY     84  28  13 W14G21    29.94F
DELTA          SUNNY     90  12   5 SW10      29.95S
NUCLA          SUNNY     82  14   7 SW9G21    30.05F
$$

COZ017>023-064>068-030000-
...SOUTHWEST COLORADO...

CITY           SKY/WX    TMP DP  RH WIND       PRES   REMARKS
DURANGO        SUNNY     78  18  10 W10G17    30.11R
CORTEZ         SUNNY     82  20  10 SE5       30.05F
PAGOSA SPRINGS SUNNY     76  10   7 SW12G17   30.18F
TELLURIDE      SUNNY     70  15  12 W13G18    30.26F
WOLF CREEK PAS NOT AVBL
$$

COZ009-010-012-014-032>034-037-058>063-030000-
...CENTRAL COLORADO...

CITY           SKY/WX    TMP DP  RH WIND       PRES   REMARKS
ASPEN          SUNNY     74  24  15 S9        30.12F
BUENA VISTA    SUNNY     77  13   9 SW15G22   30.12S
COPPER MTN     SUNNY     54  12  19 SW10G21   30.44S
BERTHOUD PASS  FAIR      46  39  76 MISG      30.47S
COTTONWOOD PAS NOT AVBL
GUNNISON       SUNNY     75  19  12 W14G22    30.15S
KREMMLING      SUNNY     77  14   9 SW10G25   30.09S
LEADVILLE      SUNNY     65  13  13 W13       30.27S
MONARCH PASS   SUNNY     55  25  30 SW17G26   30.54S
SALIDA         MOSUNNY   79  25  13 W6        30.14F
SUNLIGHT       SUNNY     63  23  22 CALM      30.36S
WILKERSON PASS SUNNY     64  14  14 SW9G17    30.40S
$$

COZ069>075-030000-
...SAN LUIS VALLEY/SANGRE DE CRISTO MOUNTAINS...

CITY           SKY/WX    TMP DP  RH WIND       PRES   REMARKS
ALAMOSA        SUNNY     80  11   7 W14       30.11F
LA VETA PASS   SUNNY    N/A N/A N/A MISG      30.30F
SAGUACHE       SUNNY     79  21  11 NW7       30.11S
$$

COZ035-036-038>040-030000-
...NORTHERN COLORADO FRONT RANGE...

CITY           SKY/WX    TMP DP  RH WIND       PRES   REMARKS
DENVER INTL AP MOSUNNY   84  42  22 E13       29.89S
DMNS CITY PARK   N/A     87  33  15 E14       29.86S
AURORA         MOSUNNY   85  45  24 NE10      29.90S
FRONT RANGE AP MOSUNNY   86  41  20 NE9       29.91S
ERIE MUNI ARPT SUNNY     88  29  12 E7        29.87S
BOULDER MUN AP SUNNY     86  36  16 NE6       29.87F
CENTENNIAL     MOSUNNY   86  21   9 W8G23     29.90F
BROOMFIELD     MOSUNNY   86  36  16 N16       29.90F
FORT COLLINS   SUNNY     86  43  22 S13       29.83F
LONGMONT       SUNNY     91  35  13 N3        29.87F
$$

COZ041-046-047-076>085-087-088-030000-
...PIKES PEAK/PALMER DIVIDE AND SOUTHERN FOOTHILLS...

CITY           SKY/WX    TMP DP  RH WIND       PRES   REMARKS
COLO. SPRINGS  MOSUNNY   84  33  16 S22       29.96S
A. F. ACADEMY  SUNNY     81  26  13 W8        29.96F
ELLICOTT       SUNNY    N/A N/A N/A S16       29.95F
FALCON         SUNNY     78  31  17 S16G22    30.02F
FORT CARSON    NOT AVBL
LIMON          SUNNY     83  43  24 SE5       29.91F
MONUMENT HILL  SUNNY     81  30  16 S6        30.03F
TRINIDAD       SUNNY     87  35  15 E7        29.94F
$$

COZ042>045-048>051-090-091-030000-
...NORTHEAST COLORADO...

CITY           SKY/WX    TMP DP  RH WIND       PRES   REMARKS
GREELEY ARPT   SUNNY     90  43  19 S8        29.84F
AKRON          SUNNY     86  44  23 NW3       29.86F
BURLINGTON     SUNNY     89  51  27 S10       29.85S
WRAY           MOSUNNY   89  59  36 NE3       29.81S
STERLING       SUNNY     88  55  33 CALM      29.80F
HOLYOKE        NOT AVBL
FORT MORGAN    SUNNY     88  33  14 NW3       29.85F
$$

COZ086-089-092>099-030000-
...SOUTHEAST COLORADO...

CITY           SKY/WX    TMP DP  RH WIND       PRES   REMARKS
PUEBLO         SUNNY     88  40  18 E8        29.85F
LA JUNTA       SUNNY     92  42  17 SE10G16   29.83F
LAMAR          SUNNY     93  40  15 S6        29.80F
SPRINGFIELD      N/A     88  51  28 S16G22    29.86F
$$


USA.gov is the U.S. government's official web portal to all federal, state and local government web resources and services.